TimeAKST,TemperatureF,Dew PointF,Humidity,Sea Level PressureIn,VisibilityMPH,Wind Direction,Wind SpeedMPH,Gust SpeedMPH,PrecipitationIn,Events,Conditions,WindDirDegrees,DateUTC
12:16 AM,15.8,12.2,86,29.66,3.0,East,15.0,19.6,N/A,,Overcast,80,2014-01-06 09:16:00
12:36 AM,15.8,12.2,86,29.66,3.0,East,17.3,24.2,N/A,,Overcast,80,2014-01-06 09:36:00
12:56 AM,15.8,12.2,86,29.66,3.0,ENE,13.8,-,N/A,,Overcast,70,2014-01-06 09:56:00
1:16 AM,15.8,12.2,86,29.66,10.0,ENE,16.1,21.9,N/A,,Overcast,70,2014-01-06 10:16:00
1:36 AM,15.8,12.2,86,29.65,10.0,ENE,17.3,23.0,N/A,,Overcast,70,2014-01-06 10:36:00
1:56 AM,15.8,12.2,86,29.65,8.0,ENE,18.4,24.2,N/A,,Overcast,70,2014-01-06 10:56:00
2:16 AM,15.8,12.2,86,29.66,10.0,East,16.1,24.2,N/A,,Overcast,80,2014-01-06 11:16:00
2:36 AM,15.8,12.2,86,29.67,10.0,East,16.1,23.0,N/A,,Overcast,80,2014-01-06 11:36:00
2:56 AM,15.8,12.2,86,29.66,5.0,ENE,15.0,21.9,N/A,,Overcast,70,2014-01-06 11:56:00
3:16 AM,15.8,12.2,86,29.66,6.0,East,18.4,25.3,N/A,,Overcast,80,2014-01-06 12:16:00
3:36 AM,15.8,12.2,86,29.67,10.0,East,13.8,21.9,N/A,,Overcast,80,2014-01-06 12:36:00
3:56 AM,15.8,12.2,86,29.66,10.0,East,17.3,23.0,N/A,,Overcast,80,2014-01-06 12:56:00
4:16 AM,15.8,12.2,86,29.66,10.0,ENE,13.8,25.3,N/A,,Overcast,70,2014-01-06 13:16:00
4:36 AM,15.8,12.2,86,29.65,10.0,ENE,13.8,25.3,N/A,,Overcast,70,2014-01-06 13:36:00
4:56 AM,15.8,12.2,86,29.65,10.0,ENE,17.3,25.3,N/A,,Overcast,70,2014-01-06 13:56:00
5:16 AM,15.8,12.2,86,29.65,10.0,East,16.1,21.9,N/A,,Overcast,80,2014-01-06 14:16:00
5:36 AM,15.8,12.2,86,29.64,10.0,East,12.7,23.0,N/A,,Overcast,80,2014-01-06 14:36:00
5:56 AM,15.8,12.2,86,29.64,10.0,East,15.0,23.0,N/A,,Overcast,80,2014-01-06 14:56:00
6:16 AM,15.8,12.2,86,29.64,10.0,East,12.7,19.6,N/A,,Overcast,80,2014-01-06 15:16:00
6:36 AM,17.6,12.2,79,29.65,10.0,ENE,10.4,20.7,N/A,,Overcast,70,2014-01-06 15:36:00
6:56 AM,17.6,12.2,79,29.65,10.0,East,13.8,20.7,N/A,,Overcast,80,2014-01-06 15:56:00
7:16 AM,17.6,12.2,79,29.64,10.0,East,16.1,21.9,N/A,,Overcast,80,2014-01-06 16:16:00
7:36 AM,17.6,12.2,79,29.64,10.0,ENE,16.1,24.2,N/A,,Overcast,70,2014-01-06 16:36:00
7:56 AM,17.6,12.2,79,29.63,10.0,ENE,17.3,25.3,N/A,,Overcast,70,2014-01-06 16:56:00
8:16 AM,17.6,12.2,79,29.64,10.0,ENE,16.1,24.2,N/A,,Overcast,70,2014-01-06 17:16:00
8:36 AM,17.6,12.2,79,29.64,10.0,ENE,17.3,24.2,N/A,,Overcast,70,2014-01-06 17:36:00
8:56 AM,17.6,12.2,79,29.64,10.0,ENE,15.0,21.9,N/A,,Overcast,70,2014-01-06 17:56:00
9:16 AM,17.6,12.2,79,29.65,10.0,ENE,16.1,24.2,N/A,,Overcast,70,2014-01-06 18:16:00
9:36 AM,17.6,12.2,79,29.65,10.0,ENE,15.0,21.9,N/A,,Overcast,70,2014-01-06 18:36:00
9:56 AM,17.6,12.2,79,29.65,10.0,East,16.1,-,N/A,,Overcast,80,2014-01-06 18:56:00
10:16 AM,17.6,12.2,79,29.64,10.0,East,19.6,27.6,N/A,,Overcast,80,2014-01-06 19:16:00
10:36 AM,17.6,12.2,79,29.63,10.0,ENE,17.3,26.5,N/A,,Overcast,70,2014-01-06 19:36:00
10:56 AM,17.6,12.2,79,29.63,3.0,East,19.6,23.0,N/A,,Overcast,80,2014-01-06 19:56:00
11:16 AM,17.6,14.0,86,29.63,1.2,East,16.1,23.0,N/A,,Overcast,80,2014-01-06 20:16:00
11:36 AM,17.6,14.0,86,29.63,1.8,East,16.1,26.5,N/A,,Overcast,80,2014-01-06 20:36:00
11:56 AM,17.6,15.8,93,29.63,1.5,East,17.3,21.9,N/A,,Overcast,90,2014-01-06 20:56:00
12:16 PM,17.6,15.8,93,29.63,1.0,East,16.1,23.0,N/A,,Overcast,80,2014-01-06 21:16:00
12:36 PM,17.6,15.8,93,29.63,0.8,ENE,15.0,20.7,N/A,,Overcast,70,2014-01-06 21:36:00
12:56 PM,17.6,15.8,93,29.62,1.0,East,12.7,19.6,N/A,,Overcast,80,2014-01-06 21:56:00
1:16 PM,17.6,14.0,86,29.62,1.0,East,15.0,20.7,N/A,,Overcast,80,2014-01-06 22:16:00
1:36 PM,17.6,14.0,86,29.62,1.0,East,18.4,24.2,N/A,,Overcast,80,2014-01-06 22:36:00
1:56 PM,17.6,15.8,93,29.61,1.2,East,17.3,24.2,N/A,,Overcast,80,2014-01-06 22:56:00
2:16 PM,17.6,15.8,93,29.61,2.0,East,16.1,23.0,N/A,,Overcast,80,2014-01-06 23:16:00
2:36 PM,17.6,15.8,93,29.61,2.5,East,16.1,24.2,N/A,,Overcast,80,2014-01-06 23:36:00
2:56 PM,17.6,15.8,93,29.60,2.0,ENE,13.8,25.3,N/A,,Overcast,70,2014-01-06 23:56:00
3:16 PM,17.6,15.8,93,29.60,5.0,ENE,15.0,21.9,N/A,,Overcast,70,2014-01-07 00:16:00
3:36 PM,17.6,15.8,93,29.61,10.0,East,13.8,23.0,N/A,,Overcast,80,2014-01-07 00:36:00
3:56 PM,17.6,15.8,93,29.60,10.0,East,16.1,20.7,N/A,,Overcast,80,2014-01-07 00:56:00
4:16 PM,17.6,15.8,93,29.61,10.0,East,15.0,24.2,N/A,,Overcast,80,2014-01-07 01:16:00
4:36 PM,17.6,15.8,93,29.60,10.0,East,12.7,-,N/A,,Overcast,80,2014-01-07 01:36:00
4:56 PM,19.4,15.8,86,29.61,10.0,East,12.7,23.0,N/A,,Overcast,80,2014-01-07 01:56:00
5:16 PM,19.4,15.8,86,29.61,10.0,East,13.8,-,N/A,,Overcast,80,2014-01-07 02:16:00
5:36 PM,19.4,15.8,86,29.61,10.0,ENE,12.7,-,N/A,,Overcast,70,2014-01-07 02:36:00
5:56 PM,19.4,15.8,86,29.62,10.0,East,13.8,18.4,N/A,,Overcast,90,2014-01-07 02:56:00
6:16 PM,19.4,15.8,86,29.61,10.0,East,12.7,16.1,N/A,,Overcast,80,2014-01-07 03:16:00
6:36 PM,19.4,15.8,86,29.62,10.0,East,11.5,-,N/A,,Overcast,80,2014-01-07 03:36:00
6:56 PM,19.4,15.8,86,29.62,10.0,East,12.7,17.3,N/A,,Overcast,80,2014-01-07 03:56:00
7:16 PM,19.4,15.8,86,29.62,10.0,East,12.7,-,N/A,,Overcast,80,2014-01-07 04:16:00
7:36 PM,19.4,15.8,86,29.62,10.0,East,12.7,17.3,N/A,,Overcast,80,2014-01-07 04:36:00
7:56 PM,19.4,17.6,93,29.63,10.0,East,10.4,-,N/A,,Overcast,90,2014-01-07 04:56:00
8:16 PM,19.4,17.6,93,29.63,10.0,East,11.5,-,N/A,,Overcast,80,2014-01-07 05:16:00
8:36 PM,19.4,15.8,86,29.62,10.0,East,13.8,-,N/A,,Overcast,80,2014-01-07 05:36:00
8:56 PM,19.4,14.0,80,29.63,10.0,East,11.5,18.4,N/A,,Overcast,80,2014-01-07 05:56:00
9:16 PM,19.4,15.8,86,29.63,10.0,East,13.8,18.4,N/A,,Overcast,80,2014-01-07 06:16:00
9:36 PM,19.4,15.8,86,29.63,10.0,ENE,10.4,17.3,N/A,,Overcast,70,2014-01-07 06:36:00
9:56 PM,19.4,15.8,86,29.63,10.0,ENE,12.7,-,N/A,,Overcast,70,2014-01-07 06:56:00
10:16 PM,19.4,15.8,86,29.63,10.0,East,13.8,20.7,N/A,,Overcast,80,2014-01-07 07:16:00
10:36 PM,19.4,14.0,80,29.64,10.0,East,11.5,19.6,N/A,,Overcast,80,2014-01-07 07:36:00
10:56 PM,17.6,14.0,86,29.63,10.0,ENE,11.5,-,N/A,,Mostly Cloudy,70,2014-01-07 07:56:00
11:16 PM,17.6,14.0,86,29.63,10.0,East,11.5,18.4,N/A,,Scattered Clouds,80,2014-01-07 08:16:00
11:36 PM,17.6,14.0,86,29.64,10.0,East,11.5,17.3,N/A,,Overcast,80,2014-01-07 08:36:00
11:56 PM,17.6,14.0,86,29.63,10.0,ENE,15.0,-,N/A,,Mostly Cloudy,70,2014-01-07 08:56:00